Location: Melara
(45.0500°N, 11.1833°E)
Time: 06:04:45
(UTC+00:00)

Envisat - Visible Passes

Search period start: 26 February 2024 00:00
Search period end: 07 March 2024 00:00
Orbit: 762 x 764 km, 98.3° (Epoch: 25 February)

Date Brightness Start Highest point End Pass type
(mag) Time Alt. Az. Time Alt. Az. Time Alt. Az.
26 Feb 4.6 02:54:12 10° NNE 02:56:28 27° N 02:56:28 27° N visible
26 Feb 4.9 04:35:18 10° NNW 04:36:38 12° NW 04:36:38 12° NW visible
27 Feb 5.2 02:17:04 10° NNE 02:18:52 21° NE 02:18:52 21° NE visible
27 Feb 4.5 03:56:34 10° N 03:59:02 21° NW 03:59:02 21° NW visible
28 Feb 5.8 01:40:32 10° NE 01:41:16 13° NE 01:41:16 13° NE visible
28 Feb 4.2 03:18:43 10° N 03:21:27 30° NNW 03:21:27 30° NNW visible
29 Feb 4.5 02:41:18 10° NNE 02:43:51 30° NNE 02:43:51 30° NNE visible
29 Feb 4.7 04:21:43 10° NNW 04:24:01 16° NW 04:24:01 16° NW visible
01 Mar 5.3 02:04:20 10° NNE 02:06:15 21° NE 02:06:15 21° NE visible
01 Mar 4.2 03:43:25 10° N 03:46:25 27° NW 03:46:25 27° NW visible
02 Mar 5.9 01:28:11 10° NE 01:28:40 12° NE 01:28:40 12° NE visible
02 Mar 4.0 03:05:44 10° N 03:08:50 37° N 03:08:50 37° N visible
02 Mar 5.0 04:48:44 10° NW 04:48:46 10° NW 04:48:49 10° NW visible
03 Mar 4.5 02:28:28 10° NNE 02:31:14 32° NE 02:31:14 32° NE visible
03 Mar 4.4 04:08:22 10° NNW 04:11:24 20° NW 04:11:24 20° NW visible
04 Mar 5.4 01:51:41 10° NE 01:53:39 19° NE 01:53:39 19° NE visible
04 Mar 3.9 03:30:20 10° N 03:33:49 34° NW 03:33:49 34° NW visible
05 Mar 3.8 02:52:47 10° NNE 02:56:14 44° N 02:56:14 44° N visible
05 Mar 4.8 04:33:51 10° NNW 04:36:05 13° WNW 04:36:24 13° WNW visible
06 Mar 4.6 02:15:40 10° NNE 02:18:38 31° NE 02:18:38 31° NE visible
06 Mar 4.1 03:55:08 10° N 03:58:48 25° NW 03:58:48 25° NW visible
